Погода в Кафтанчикове

Россия / Томская область     56°20′38″N   84°52′02″E
темп.,
°C
ветер,
м/с
пор.,
м/с
влажн.,
%
обл.,
%
осадки,
мм/ч
давл.,
гПа
погр.,
м
28 сентября, вт
вт2801:00+3ссв1389100 0.1 1024111
04:00+3ссв1287100 0.0 102366
07:00+3с239194 0.0 1023105
10:00+5ссв23755 0.0 1022336
13:00+8ссв235762 0.1 10211381
16:00+7ссв2367100 0.1 1021480
19:00+6ссв2274100 0.2 102128
22:00+5св227992 0.0 102051
29 сентября, ср
ср2901:00+4в227976 0.0 101953
04:00+1в2285100 0.0 101826
07:00+1всв2787100 0.0 1017144
10:00+4всв4106962 0.0 1015469
13:00+8всв575131 0.0 1013994
16:00+9всв4753100 0.0 10121175
19:00+6всв31064100 0.0 1012433
22:00+5всв3777100 0.2 1011608
30 сентября, чт
чт3001:00+4всв3788100 0.5 1010383
04:00+5вюв2594100 0.0 1010284
07:00+5ю2491100 0.0 1010247
10:00+4ю2487100 0.0 1010488
13:00+4ю3591100 0.1 1011602
16:00+4ююв1397100 0.4 1010753
19:00+4зсз1293100 0.7 1010393
22:00+2зсз3797100 0.6 1011369
1 октября, пт
пт101:00+2зсз3898100 1.4 1011578
04:00+2з3798100 0.5 1012461
07:00+1з3797100 0.7 1012450
10:00+2зюз3997100 0.3 1012422
13:00+2зюз4997100 0.6 1013447
16:00+3юз4993100 0.1 1013715
19:00+3зюз41097100 0.9 1013900
22:00+2з3698100 1.4 1014515
2 октября, сб
сб201:00+1сз369799 2.0 1015467
04:00−2зсз2697100 0.1 1016256
07:00−2з269789 0.1 1017232
10:00+1зсз358998 0.4 1018606
13:00+3зсз3574100 0.9 10191135
16:00+3зсз4776100 0.6 10211219
19:00+1зсз3886100 1.1 1023483
22:000з3892100 0.1 1025395